Back to catalog

STARLINK-5375

AliveCommunicationsVLEO
NORAD 56140·PAYLOAD·🇺🇸 United States

Launched Mar 29, 2023 from Cape Canaveral Space Force Station

Loading…

Next Passes (next 24 hours)

TLE

FreshSource: CelesTrak SupGP

Epoch: Sep 15, 2026, 02:03 UTC

1 56140C 23046AZ  26258.08590278  .00026843  00000+0  97232-3 0  2589
2 56140  43.0016 157.7512 0001019 264.1881  15.8212 15.27563138    12

Track STARLINK-5375 in real time with AllMySat

Download on the App Store